Location: Naples
(26.1420°N, 81.7950°W)
Time: 12:29:17
(UTC-04:00)

Tiangong - Pass Details

Date: 17 May 2026
Orbit: 380 x 392 km, 41.5° (Epoch: 11 June)

Event Time Altitude Azimuth Distance (km) Brightness Sun altitude
Exits shadow 04:06:13 12° 54° (NE) 1,277 1.3 -29.8°
Drops below altitude 10° 04:06:46 10° 63° (ENE) 1,403 1.5 -29.7°
Sets 04:09:25 0° 87° (E) 2,251 2.4 -29.3°
